TimeEDT,TemperatureF,Dew PointF,Humidity,Sea Level PressureIn,VisibilityMPH,Wind Direction,Wind SpeedMPH,Gust SpeedMPH,PrecipitationIn,Events,Conditions,WindDirDegrees,DateUTC
12:53 AM,50.0,37.0,61,29.65,10.0,South,6.9,-,N/A,,Overcast,170,2012-10-19 04:53:00
1:53 AM,46.9,37.0,68,29.63,10.0,ESE,3.5,-,N/A,,Overcast,120,2012-10-19 05:53:00
2:53 AM,45.0,37.0,74,29.62,10.0,ESE,5.8,-,N/A,,Mostly Cloudy,120,2012-10-19 06:53:00
3:53 AM,46.0,37.0,71,29.62,10.0,SSE,5.8,-,N/A,,Clear,150,2012-10-19 07:53:00
4:53 AM,46.9,37.0,68,29.61,10.0,SSE,4.6,-,N/A,,Mostly Cloudy,150,2012-10-19 08:53:00
5:53 AM,48.9,37.9,66,29.60,10.0,SE,5.8,-,N/A,,Overcast,140,2012-10-19 09:53:00
6:53 AM,48.9,39.0,69,29.60,10.0,SE,8.1,-,N/A,,Overcast,140,2012-10-19 10:53:00
7:53 AM,50.0,42.1,74,29.59,10.0,SE,11.5,-,0.00,Rain,Light Rain,130,2012-10-19 11:53:00
8:53 AM,51.1,41.0,68,29.59,10.0,SE,13.8,-,0.00,,Overcast,140,2012-10-19 12:53:00
9:53 AM,52.0,41.0,66,29.60,10.0,South,13.8,-,N/A,,Overcast,170,2012-10-19 13:53:00
10:53 AM,51.1,41.0,68,29.59,10.0,SSE,13.8,-,0.00,,Overcast,150,2012-10-19 14:53:00
11:53 AM,52.0,41.0,66,29.58,10.0,SSE,15.0,21.9,0.00,Rain,Light Rain,150,2012-10-19 15:53:00
12:53 PM,51.1,44.1,77,29.58,10.0,South,10.4,-,0.01,,Overcast,180,2012-10-19 16:53:00
1:53 PM,54.0,39.9,59,29.56,10.0,South,15.0,19.6,N/A,,Overcast,180,2012-10-19 17:53:00
2:53 PM,54.0,39.0,57,29.55,10.0,South,11.5,-,N/A,,Overcast,180,2012-10-19 18:53:00
3:53 PM,55.0,39.0,55,29.55,10.0,South,6.9,-,N/A,,Overcast,180,2012-10-19 19:53:00
4:53 PM,54.0,39.0,57,29.55,10.0,South,5.8,-,N/A,,Overcast,180,2012-10-19 20:53:00
5:53 PM,52.0,39.9,63,29.56,10.0,South,6.9,-,0.00,,Overcast,170,2012-10-19 21:53:00
6:53 PM,53.1,39.0,59,29.57,10.0,South,10.4,-,N/A,,Overcast,170,2012-10-19 22:53:00
7:53 PM,48.9,44.1,83,29.60,8.0,South,9.2,-,0.00,Rain,Light Rain,180,2012-10-19 23:53:00
8:53 PM,46.9,43.0,86,29.59,10.0,South,5.8,-,0.02,Rain,Light Rain,170,2012-10-20 00:53:00
9:50 PM,46.4,44.6,93,29.59,8.0,SSE,3.5,-,0.01,Rain,Light Rain,160,2012-10-20 01:50:00
9:53 PM,46.9,44.1,90,29.60,8.0,SSE,3.5,-,0.01,Rain,Light Rain,150,2012-10-20 01:53:00
10:29 PM,46.4,44.6,93,29.58,7.0,Calm,Calm,-,0.01,Rain,Light Rain,0,2012-10-20 02:29:00
10:53 PM,46.9,44.1,90,29.59,6.0,Calm,Calm,-,0.01,Rain,Light Rain,0,2012-10-20 02:53:00
11:10 PM,46.4,44.6,93,29.58,6.0,Calm,Calm,-,0.01,Rain,Light Rain,0,2012-10-20 03:10:00
11:23 PM,46.4,44.6,93,29.58,6.0,Calm,Calm,-,0.02,Rain,Light Rain,0,2012-10-20 03:23:00
11:53 PM,46.0,44.1,93,29.59,5.0,South,3.5,-,0.03,Rain,Light Rain,180,2012-10-20 03:53:00